| time (UTC) | temp F | wind direction | speed MPH | gust MPH | rain 1hr in | rain 24hr in | rain mn in | humidity % | barometer mb |
| 20260507014002 | 57 | 259 | 1.0 | 4.0 | 0.00 | 0.09 | 0.09 | 97 | 1007.7 |
| 20260507013502 | 56 | 288 | 2.0 | 6.0 | 0.00 | 0.09 | 0.09 | 97 | 1007.6 |
| 20260507013008 | 56 | 213 | 1.0 | 6.0 | 0.00 | 0.09 | 0.09 | 97 | 1007.2 |
| 20260507012505 | 56 | 99 | 1.0 | 5.0 | 0.00 | 0.09 | 0.09 | 97 | 1007.3 |
| 20260507012003 | 57 | 225 | 1.0 | 9.0 | 0.00 | 0.09 | 0.09 | 97 | 1007.2 |
| 20260507011515 | 57 | 130 | 1.0 | 9.0 | 0.00 | 0.09 | 0.09 | 97 | 1007.4 |
| 20260507011005 | 56 | 229 | 2.0 | 5.0 | 0.00 | 0.09 | 0.09 | 97 | 1007.5 |
| 20260507010510 | 57 | 238 | 1.0 | 4.0 | 0.00 | 0.09 | 0.09 | 97 | 1007.4 |
| 20260507010007 | 57 | 242 | 1.0 | 4.0 | 0.00 | 0.09 | 0.09 | 97 | 1007.5 |
| 20260507005503 | 57 | 267 | 2.0 | 6.0 | 0.00 | 0.09 | 0.09 | 97 | 1007.5 |
| 20260507005007 | 57 | 263 | 1.0 | 6.0 | 0.00 | 0.09 | 0.09 | 97 | 1007.6 |
| 20260507004503 | 57 | 294 | 2.0 | 6.0 | 0.00 | 0.09 | 0.09 | 97 | 1007.6 |
| 20260507004003 | 57 | 201 | 1.0 | 7.0 | 0.00 | 0.09 | 0.09 | 97 | 1007.6 |
| 20260507003503 | 57 | 223 | 0.0 | 7.0 | 0.00 | 0.09 | 0.09 | 97 | 1007.7 |
| 20260507003007 | 57 | 244 | 1.0 | 4.0 | 0.00 | 0.09 | 0.09 | 97 | 1007.8 |
| 20260507002503 | 57 | 248 | 2.0 | 4.0 | 0.00 | 0.09 | 0.09 | 97 | 1007.7 |
| 20260507002002 | 56 | 267 | 2.0 | 4.0 | 0.00 | 0.09 | 0.09 | 97 | 1007.6 |
| 20260507001509 | 57 | 245 | 1.0 | 4.0 | 0.00 | 0.09 | 0.09 | 97 | 1007.6 |
| 20260507001004 | 56 | 246 | 2.0 | 4.0 | 0.00 | 0.09 | 0.09 | 97 | 1007.6 |
| 20260507000503 | 56 | 271 | 1.0 | 8.0 | 0.00 | 0.09 | 0.09 | 97 | 1007.5 |
| 20260507000011 | 56 | 238 | 3.0 | 8.0 | 0.00 | 0.09 | 0.09 | 97 | 1007.6 |
| 20260506235506 | 56 | 161 | 2.0 | 10.0 | 0.00 | 0.09 | 0.09 | 96 | 1007.4 |
| 20260506235002 | 56 | 271 | 2.0 | 10.0 | 0.00 | 0.09 | 0.09 | 96 | 1007.4 |
| 20260506234504 | 56 | 192 | 2.0 | 5.0 | 0.00 | 0.09 | 0.09 | 96 | 1007.4 |
| 20260506234006 | 56 | 246 | 2.0 | 5.0 | 0.00 | 0.09 | 0.09 | 96 | 1007.4 |
| 20260506233503 | 56 | 214 | 1.0 | 7.0 | 0.00 | 0.09 | 0.09 | 96 | 1007.3 |
| 20260506233005 | 56 | 248 | 3.0 | 7.0 | 0.00 | 0.09 | 0.09 | 96 | 1007.3 |
| 20260506232503 | 56 | 245 | 1.0 | 5.0 | 0.00 | 0.09 | 0.09 | 96 | 1007.3 |
| 20260506232002 | 56 | 301 | 2.0 | 5.0 | 0.00 | 0.09 | 0.09 | 96 | 1007.3 |
| 20260506231508 | 56 | 254 | 1.0 | 5.0 | 0.01 | 0.09 | 0.09 | 96 | 1007.3 |
| 20260506231003 | 56 | 253 | 2.0 | 5.0 | 0.01 | 0.09 | 0.09 | 96 | 1007.4 |
| 20260506230503 | 56 | 257 | 1.0 | 6.0 | 0.01 | 0.09 | 0.09 | 96 | 1007.4 |
| 20260506230013 | 56 | 261 | 3.0 | 6.0 | 0.01 | 0.09 | 0.09 | 96 | 1007.3 |
| 20260506225503 | 56 | 227 | 2.0 | 4.0 | 0.01 | 0.09 | 0.09 | 96 | 1007.2 |
| 20260506225005 | 56 | 227 | 1.0 | 8.0 | 0.01 | 0.09 | 0.09 | 96 | 1007.2 |
| 20260506224514 | 56 | 231 | 4.0 | 8.0 | 0.01 | 0.09 | 0.09 | 95 | 1007.2 |
| 20260506224006 | 56 | 254 | 1.0 | 9.0 | 0.01 | 0.09 | 0.09 | 95 | 1007.2 |
| 20260506223501 | 57 | 246 | 3.0 | 8.0 | 0.01 | 0.09 | 0.09 | 95 | 1007.1 |
| 20260506223017 | 57 | 220 | 2.0 | 4.0 | 0.02 | 0.09 | 0.09 | 95 | 1007.2 |
| 20260506222506 | 57 | 188 | 2.0 | 6.0 | 0.02 | 0.09 | 0.09 | 95 | 1007.2 |
| 20260506222006 | 57 | 255 | 1.0 | 6.0 | 0.02 | 0.09 | 0.09 | 95 | 1007.1 |
| 20260506221505 | 57 | 54 | 1.0 | 8.0 | 0.02 | 0.08 | 0.08 | 95 | 1007.1 |
| 20260506221003 | 57 | 298 | 3.0 | 8.0 | 0.03 | 0.08 | 0.08 | 95 | 1007.1 |
| 20260506220503 | 57 | 204 | 1.0 | 9.0 | 0.03 | 0.08 | 0.08 | 95 | 1007.0 |
| 20260506220014 | 57 | 273 | 3.0 | 9.0 | 0.03 | 0.08 | 0.08 | 95 | 1007.1 |
| 20260506215505 | 57 | 269 | 3.0 | 11.0 | 0.03 | 0.08 | 0.08 | 95 | 1007.1 |
| 20260506215009 | 57 | 219 | 3.0 | 11.0 | 0.03 | 0.08 | 0.08 | 95 | 1007.0 |
| 20260506214502 | 57 | 252 | 1.0 | 9.0 | 0.03 | 0.08 | 0.08 | 95 | 1007.1 |
| 20260506214002 | 57 | 270 | 2.0 | 9.0 | 0.03 | 0.08 | 0.08 | 95 | 1007.1 |
| 20260506213511 | 57 | 238 | 2.0 | 9.0 | 0.03 | 0.08 | 0.08 | 95 | 1007.2 |
| 20260506213027 | 57 | 237 | 3.0 | 8.0 | 0.02 | 0.07 | 0.07 | 95 | 1007.2 |
| 20260506212502 | 57 | 265 | 1.0 | 4.0 | 0.02 | 0.07 | 0.07 | 95 | 1007.3 |
| 20260506212006 | 57 | 219 | 1.0 | 3.0 | 0.02 | 0.07 | 0.07 | 95 | 1007.4 |
| 20260506211521 | 58 | 313 | 1.0 | 8.0 | 0.01 | 0.06 | 0.06 | 94 | 1007.4 |
| 20260506211007 | 58 | 199 | 4.0 | 7.0 | 0.00 | 0.05 | 0.05 | 94 | 1007.5 |
| 20260506210503 | 58 | 173 | 1.0 | 8.0 | 0.00 | 0.05 | 0.05 | 94 | 1007.5 |
| 20260506210006 | 58 | 86 | 1.0 | 8.0 | 0.00 | 0.05 | 0.05 | 94 | 1007.5 |
| 20260506205502 | 58 | 264 | 0.0 | 5.0 | 0.00 | 0.05 | 0.05 | 94 | 1007.5 |
| 20260506205002 | 58 | 190 | 1.0 | 3.0 | 0.00 | 0.05 | 0.05 | 94 | 1007.6 |
| 20260506204510 | 58 | 202 | 1.0 | 5.0 | 0.00 | 0.05 | 0.05 | 94 | 1007.7 |
| 20260506204013 | 58 | 252 | 1.0 | 9.0 | 0.00 | 0.05 | 0.05 | 94 | 1007.6 |
| 20260506203508 | 58 | 209 | 1.0 | 9.0 | 0.00 | 0.05 | 0.05 | 94 | 1007.7 |
| 20260506203016 | 58 | 114 | 0.0 | 8.0 | 0.00 | 0.05 | 0.05 | 94 | 1007.8 |
| 20260506202507 | 58 | 286 | 4.0 | 8.0 | 0.00 | 0.05 | 0.05 | 94 | 1007.8 |
| 20260506202010 | 58 | 228 | 1.0 | 7.0 | 0.01 | 0.05 | 0.05 | 94 | 1007.8 |
| 20260506201508 | 58 | 211 | 1.0 | 7.0 | 0.01 | 0.05 | 0.05 | 94 | 1007.8 |
| 20260506201004 | 58 | 259 | 1.0 | 4.0 | 0.01 | 0.05 | 0.05 | 94 | 1007.8 |
| 20260506200502 | 58 | 273 | 1.0 | 7.0 | 0.01 | 0.05 | 0.05 | 94 | 1007.9 |
| 20260506200006 | 58 | 266 | 3.0 | 6.0 | 0.02 | 0.05 | 0.05 | 94 | 1007.9 |
| 20260506195503 | 58 | 70 | 1.0 | 5.0 | 0.03 | 0.05 | 0.05 | 94 | 1007.9 |
| 20260506195002 | 58 | 316 | 1.0 | 8.0 | 0.04 | 0.05 | 0.05 | 94 | 1008.1 |
| 20260506194502 | 58 | 348 | 1.0 | 9.0 | 0.04 | 0.05 | 0.05 | 93 | 1008.1 |
| 20260506194002 | 58 | 169 | 2.0 | 9.0 | 0.05 | 0.05 | 0.05 | 93 | 1008.2 |
| 20260506193501 | 58 | 256 | 3.0 | 9.0 | 0.05 | 0.05 | 0.05 | 93 | 1008.3 |
| 20260506193001 | 58 | 167 | 2.0 | 8.0 | 0.05 | 0.05 | 0.05 | 93 | 1008.2 |
| 20260506192503 | 58 | 211 | 2.0 | 6.0 | 0.05 | 0.05 | 0.05 | 93 | 1008.2 |
| 20260506192003 | 58 | 240 | 1.0 | 6.0 | 0.04 | 0.04 | 0.04 | 93 | 1008.5 |
| 20260506191506 | 58 | 177 | 3.0 | 6.0 | 0.04 | 0.04 | 0.04 | 92 | 1008.4 |
| 20260506191003 | 58 | 277 | 2.0 | 6.0 | 0.04 | 0.04 | 0.04 | 92 | 1008.5 |
| 20260506190502 | 58 | 304 | 1.0 | 7.0 | 0.04 | 0.04 | 0.04 | 91 | 1008.5 |
| 20260506190007 | 58 | 290 | 2.0 | 8.0 | 0.03 | 0.03 | 0.03 | 91 | 1008.6 |
| 20260506185502 | 58 | 281 | 3.0 | 8.0 | 0.02 | 0.02 | 0.02 | 90 | 1008.6 |
| 20260506185003 | 59 | 34 | 0.0 | 11.0 | 0.01 | 0.01 | 0.01 | 89 | 1008.4 |
| 20260506184507 | 59 | 219 | 2.0 | 11.0 | 0.01 | 0.01 | 0.01 | 89 | 1008.4 |
| 20260506184004 | 59 | 291 | 1.0 | 6.0 | 0.00 | 0.00 | 0.00 | 88 | 1008.5 |
| 20260506183504 | 59 | 175 | 1.0 | 9.0 | 0.00 | 0.00 | 0.00 | 88 | 1008.7 |
| 20260506183006 | 59 | 77 | 2.0 | 12.0 | 0.00 | 0.00 | 0.00 | 87 | 1008.6 |
| 20260506182506 | 60 | 324 | 3.0 | 12.0 | 0.00 | 0.00 | 0.00 | 86 | 1008.9 |
| 20260506182003 | 60 | 300 | 2.0 | 10.0 | 0.00 | 0.00 | 0.00 | 85 | 1009.0 |
| 20260506181503 | 60 | 165 | 2.0 | 12.0 | 0.00 | 0.00 | 0.00 | 85 | 1009.1 |
| 20260506181004 | 60 | 360 | 3.0 | 12.0 | 0.00 | 0.00 | 0.00 | 83 | 1009.4 |
| 20260506180503 | 61 | 360 | 4.0 | 10.0 | 0.00 | 0.00 | 0.00 | 81 | 1009.5 |
| 20260506180007 | 61 | 315 | 2.0 | 9.0 | 0.00 | 0.00 | 0.00 | 81 | 1009.4 |
| 20260506175503 | 62 | 267 | 2.0 | 8.0 | 0.00 | 0.00 | 0.00 | 80 | 1009.4 |
| 20260506175002 | 62 | 101 | 1.0 | 10.0 | 0.00 | 0.00 | 0.00 | 80 | 1009.5 |
| 20260506174504 | 62 | 233 | 3.0 | 10.0 | 0.00 | 0.00 | 0.00 | 79 | 1009.6 |
| 20260506174003 | 62 | 257 | 3.0 | 8.0 | 0.00 | 0.00 | 0.00 | 78 | 1009.7 |
| 20260506173504 | 62 | 310 | 2.0 | 8.0 | 0.00 | 0.00 | 0.00 | 78 | 1009.8 |
| 20260506173009 | 63 | 254 | 2.0 | 11.0 | 0.00 | 0.00 | 0.00 | 77 | 1009.8 |
| 20260506172504 | 63 | 242 | 3.0 | 11.0 | 0.00 | 0.00 | 0.00 | 77 | 1009.8 |
| 20260506172004 | 63 | 279 | 5.0 | 11.0 | 0.00 | 0.00 | 0.00 | 76 | 1009.7 |
| 20260506171521 | 63 | 258 | 3.0 | 10.0 | 0.00 | 0.00 | 0.00 | 76 | 1009.8 |
| 20260506171003 | 64 | 360 | 5.0 | 10.0 | 0.00 | 0.00 | 0.00 | 75 | 1009.8 |
| 20260506170503 | 65 | 240 | 6.0 | 13.0 | 0.00 | 0.00 | 0.00 | 74 | 1009.9 |
| 20260506170003 | 65 | 185 | 3.0 | 13.0 | 0.00 | 0.00 | 0.00 | 73 | 1009.8 |
| 20260506165503 | 66 | 260 | 3.0 | 6.0 | 0.00 | 0.00 | 0.00 | 74 | 1009.8 |
| 20260506165003 | 65 | 229 | 3.0 | 8.0 | 0.00 | 0.00 | 0.00 | 73 | 1009.9 |
| 20260506164504 | 65 | 22 | 3.0 | 10.0 | 0.00 | 0.00 | 0.00 | 73 | 1009.8 |
| 20260506164003 | 66 | 228 | 4.0 | 15.0 | 0.00 | 0.00 | 0.00 | 72 | 1009.7 |
| 20260506163505 | 65 | 213 | 5.0 | 15.0 | 0.00 | 0.00 | 0.00 | 73 | 1009.8 |
| 20260506163004 | 65 | 202 | 2.0 | 8.0 | 0.00 | 0.00 | 0.00 | 74 | 1009.8 |
| 20260506162503 | 65 | 230 | 2.0 | 12.0 | 0.00 | 0.00 | 0.00 | 74 | 1009.9 |
| 20260506162008 | 65 | 260 | 5.0 | 12.0 | 0.00 | 0.00 | 0.00 | 73 | 1009.9 |
| 20260506161504 | 65 | 250 | 4.0 | 18.0 | 0.00 | 0.00 | 0.00 | 74 | 1010.1 |
| 20260506161003 | 65 | 251 | 3.0 | 18.0 | 0.00 | 0.00 | 0.00 | 73 | 1010.2 |
| 20260506160503 | 65 | 241 | 5.0 | 13.0 | 0.00 | 0.00 | 0.00 | 72 | 1010.3 |
| 20260506160023 | 66 | 198 | 5.0 | 12.0 | 0.00 | 0.00 | 0.00 | 72 | 1010.3 |
| 20260506155504 | 66 | 170 | 5.0 | 12.0 | 0.00 | 0.00 | 0.00 | 71 | 1010.3 |
| 20260506155003 | 67 | 234 | 4.0 | 9.0 | 0.00 | 0.00 | 0.00 | 69 | 1010.4 |
| 20260506154503 | 67 | 309 | 2.0 | 11.0 | 0.00 | 0.00 | 0.00 | 69 | 1010.3 |
| 20260506154003 | 67 | 222 | 1.0 | 11.0 | 0.00 | 0.00 | 0.00 | 70 | 1010.3 |
| 20260506153502 | 68 | 325 | 3.0 | 12.0 | 0.00 | 0.00 | 0.00 | 69 | 1010.4 |
| 20260506153006 | 68 | 273 | 3.0 | 12.0 | 0.00 | 0.00 | 0.00 | 70 | 1010.3 |
| 20260506152503 | 68 | 245 | 3.0 | 11.0 | 0.00 | 0.00 | 0.00 | 70 | 1010.4 |
| 20260506152004 | 68 | 263 | 6.0 | 11.0 | 0.00 | 0.00 | 0.00 | 68 | 1010.4 |
| 20260506151508 | 68 | 303 | 4.0 | 16.0 | 0.00 | 0.00 | 0.00 | 70 | 1010.5 |
| 20260506151004 | 68 | 247 | 3.0 | 16.0 | 0.00 | 0.00 | 0.00 | 69 | 1010.4 |
| 20260506150511 | 67 | 255 | 4.0 | 15.0 | 0.00 | 0.00 | 0.00 | 70 | 1010.6 |
| 20260506150007 | 67 | 282 | 5.0 | 15.0 | 0.00 | 0.00 | 0.00 | 71 | 1010.5 |
| 20260506145504 | 67 | 292 | 7.0 | 11.0 | 0.00 | 0.00 | 0.00 | 72 | 1010.6 |
| 20260506145012 | 66 | 269 | 4.0 | 11.0 | 0.00 | 0.00 | 0.00 | 72 | 1010.6 |
| 20260506144505 | 66 | 291 | 3.0 | 14.0 | 0.00 | 0.00 | 0.00 | 72 | 1010.7 |
| 20260506144002 | 66 | 244 | 6.0 | 14.0 | 0.00 | 0.00 | 0.00 | 72 | 1010.7 |
| 20260506143502 | 66 | 292 | 3.0 | 20.0 | 0.00 | 0.00 | 0.00 | 72 | 1010.7 |
| 20260506143012 | 66 | 297 | 6.0 | 15.0 | 0.00 | 0.00 | 0.00 | 71 | 1010.6 |
| 20260506142503 | 66 | 301 | 4.0 | 12.0 | 0.00 | 0.00 | 0.00 | 72 | 1010.8 |
| 20260506142003 | 66 | 198 | 5.0 | 10.0 | 0.00 | 0.00 | 0.00 | 72 | 1010.9 |
| 20260506141509 | 66 | 228 | 4.0 | 11.0 | 0.00 | 0.00 | 0.00 | 73 | 1010.8 |
| 20260506141004 | 66 | 220 | 3.0 | 11.0 | 0.00 | 0.00 | 0.00 | 71 | 1010.8 |
| 20260506140503 | 67 | 250 | 5.0 | 10.0 | 0.00 | 0.00 | 0.00 | 71 | 1010.7 |
| 20260506140013 | 66 | 265 | 3.0 | 10.0 | 0.00 | 0.00 | 0.00 | 74 | 1010.7 |
| 20260506135507 | 65 | 215 | 2.0 | 11.0 | 0.00 | 0.00 | 0.00 | 75 | 1010.6 |
| 20260506135004 | 65 | 241 | 5.0 | 12.0 | 0.00 | 0.00 | 0.00 | 74 | 1010.6 |
| 20260506134514 | 65 | 255 | 6.0 | 12.0 | 0.00 | 0.00 | 0.00 | 74 | 1010.6 |
| 20260506134010 | 65 | 249 | 3.0 | 12.0 | 0.00 | 0.00 | 0.00 | 75 | 1010.6 |
| 20260506133502 | 64 | 196 | 5.0 | 10.0 | 0.00 | 0.00 | 0.00 | 75 | 1010.7 |
| 20260506133007 | 64 | 243 | 4.0 | 13.0 | 0.00 | 0.00 | 0.00 | 77 | 1010.6 |
| 20260506132504 | 63 | 273 | 4.0 | 13.0 | 0.00 | 0.00 | 0.00 | 76 | 1010.7 |
| 20260506132008 | 64 | 258 | 5.0 | 13.0 | 0.00 | 0.00 | 0.00 | 76 | 1010.8 |
| 20260506131513 | 64 | 273 | 4.0 | 13.0 | 0.00 | 0.00 | 0.00 | 76 | 1010.8 |
| 20260506131002 | 63 | 281 | 2.0 | 12.0 | 0.00 | 0.00 | 0.00 | 78 | 1010.8 |
| 20260506130503 | 63 | 200 | 5.0 | 15.0 | 0.00 | 0.00 | 0.00 | 77 | 1011.0 |
| 20260506130005 | 63 | 278 | 5.0 | 15.0 | 0.00 | 0.00 | 0.00 | 78 | 1011.1 |
| 20260506125505 | 63 | 217 | 6.0 | 13.0 | 0.00 | 0.00 | 0.00 | 77 | 1011.2 |
| 20260506125005 | 63 | 257 | 6.0 | 14.0 | 0.00 | 0.00 | 0.00 | 77 | 1011.1 |
| 20260506124514 | 63 | 207 | 3.0 | 14.0 | 0.00 | 0.00 | 0.00 | 79 | 1011.0 |
| 20260506124002 | 62 | 261 | 5.0 | 13.0 | 0.00 | 0.00 | 0.00 | 79 | 1011.0 |
| 20260506123506 | 62 | 269 | 4.0 | 13.0 | 0.00 | 0.00 | 0.00 | 80 | 1011.0 |
| 20260506123020 | 62 | 298 | 3.0 | 11.0 | 0.00 | 0.00 | 0.00 | 82 | 1011.0 |
| 20260506122509 | 61 | 241 | 4.0 | 11.0 | 0.00 | 0.00 | 0.00 | 82 | 1011.0 |
| 20260506122012 | 61 | 294 | 5.0 | 12.0 | 0.00 | 0.00 | 0.00 | 82 | 1011.0 |
| 20260506121507 | 61 | 261 | 3.0 | 12.0 | 0.00 | 0.00 | 0.00 | 82 | 1011.0 |
| 20260506121003 | 61 | 257 | 2.0 | 10.0 | 0.00 | 0.00 | 0.00 | 82 | 1010.9 |
| 20260506120507 | 61 | 173 | 3.0 | 10.0 | 0.00 | 0.00 | 0.00 | 83 | 1011.0 |
| 20260506120008 | 61 | 250 | 4.0 | 9.0 | 0.00 | 0.00 | 0.00 | 83 | 1010.9 |
| 20260506115503 | 60 | 226 | 3.0 | 9.0 | 0.00 | 0.00 | 0.00 | 84 | 1011.1 |
| 20260506115006 | 60 | 240 | 5.0 | 16.0 | 0.00 | 0.00 | 0.00 | 85 | 1010.9 |
| 20260506114509 | 60 | 227 | 3.0 | 16.0 | 0.00 | 0.00 | 0.00 | 85 | 1011.0 |
| 20260506114005 | 59 | 267 | 2.0 | 8.0 | 0.00 | 0.00 | 0.00 | 86 | 1011.3 |
| 20260506113505 | 59 | 256 | 2.0 | 9.0 | 0.00 | 0.00 | 0.00 | 86 | 1011.2 |
| 20260506113008 | 59 | 265 | 3.0 | 9.0 | 0.00 | 0.00 | 0.00 | 87 | 1011.3 |
| 20260506112507 | 59 | 215 | 4.0 | 7.0 | 0.00 | 0.00 | 0.00 | 87 | 1011.3 |
| 20260506112009 | 58 | 360 | 1.0 | 6.0 | 0.00 | 0.00 | 0.00 | 88 | 1011.3 |
| 20260506111524 | 58 | 360 | 2.0 | 11.0 | 0.00 | 0.00 | 0.00 | 88 | 1011.1 |
| 20260506111004 | 58 | 242 | 5.0 | 12.0 | 0.00 | 0.00 | 0.00 | 89 | 1011.2 |
| 20260506110511 | 57 | 269 | 5.0 | 12.0 | 0.00 | 0.00 | 0.00 | 90 | 1011.4 |
| 20260506110506 | 57 | 213 | 5.0 | 12.0 | 0.00 | 0.00 | 0.00 | 90 | 1011.4 |
| 20260506110007 | 57 | 265 | 2.0 | 8.0 | 0.00 | 0.00 | 0.00 | 90 | 1011.3 |
| 20260506105504 | 57 | 269 | 1.0 | 6.0 | 0.00 | 0.00 | 0.00 | 90 | 1011.2 |
| 20260506105005 | 56 | 271 | 3.0 | 5.0 | 0.00 | 0.00 | 0.00 | 90 | 1011.3 |
| 20260506104502 | 56 | 209 | 1.0 | 4.0 | 0.00 | 0.00 | 0.00 | 90 | 1011.3 |
| 20260506104002 | 56 | 185 | 1.0 | 5.0 | 0.00 | 0.00 | 0.00 | 90 | 1011.2 |
| 20260506103502 | 56 | 284 | 2.0 | 6.0 | 0.00 | 0.00 | 0.00 | 90 | 1011.3 |
| 20260506103006 | 56 | 221 | 2.0 | 6.0 | 0.00 | 0.00 | 0.00 | 90 | 1011.1 |
| 20260506102502 | 56 | 38 | 1.0 | 5.0 | 0.00 | 0.00 | 0.00 | 90 | 1011.1 |
| 20260506102002 | 56 | 296 | 2.0 | 5.0 | 0.00 | 0.00 | 0.00 | 89 | 1010.9 |
| 20260506101503 | 56 | 72 | 1.0 | 4.0 | 0.00 | 0.00 | 0.00 | 89 | 1010.9 |
| 20260506101006 | 56 | 225 | 1.0 | 5.0 | 0.00 | 0.00 | 0.00 | 89 | 1010.9 |
| 20260506100503 | 56 | 237 | 2.0 | 6.0 | 0.00 | 0.00 | 0.00 | 89 | 1010.8 |
| 20260506100007 | 56 | 277 | 2.0 | 6.0 | 0.00 | 0.00 | 0.00 | 89 | 1010.8 |
| 20260506095503 | 56 | 275 | 0.0 | 3.0 | 0.00 | 0.00 | 0.00 | 88 | 1010.8 |
| 20260506095002 | 57 | 247 | 1.0 | 8.0 | 0.00 | 0.00 | 0.00 | 88 | 1010.9 |
| 20260506094514 | 57 | 250 | 2.0 | 8.0 | 0.00 | 0.00 | 0.00 | 88 | 1010.9 |
| 20260506094004 | 57 | 231 | 2.0 | 9.0 | 0.00 | 0.00 | 0.00 | 88 | 1010.9 |
| 20260506093502 | 57 | 252 | 3.0 | 9.0 | 0.00 | 0.00 | 0.00 | 88 | 1010.9 |
| 20260506093004 | 57 | 284 | 2.0 | 7.0 | 0.00 | 0.00 | 0.00 | 88 | 1010.9 |
| 20260506092503 | 57 | 263 | 2.0 | 9.0 | 0.00 | 0.00 | 0.00 | 87 | 1010.9 |
| 20260506092004 | 57 | 194 | 3.0 | 10.0 | 0.00 | 0.00 | 0.00 | 88 | 1010.8 |
| 20260506091505 | 57 | 280 | 2.0 | 10.0 | 0.00 | 0.00 | 0.00 | 87 | 1010.9 |
| 20260506091007 | 57 | 136 | 1.0 | 4.0 | 0.00 | 0.00 | 0.00 | 87 | 1010.9 |
| 20260506090504 | 57 | 295 | 1.0 | 4.0 | 0.00 | 0.00 | 0.00 | 87 | 1011.0 |
| 20260506090007 | 57 | 218 | 1.0 | 8.0 | 0.00 | 0.00 | 0.00 | 87 | 1011.1 |
| 20260506085503 | 57 | 161 | 2.0 | 10.0 | 0.00 | 0.00 | 0.00 | 87 | 1011.0 |
| 20260506085004 | 57 | 252 | 2.0 | 10.0 | 0.00 | 0.00 | 0.00 | 86 | 1011.1 |
| 20260506084516 | 57 | 283 | 1.0 | 4.0 | 0.00 | 0.00 | 0.00 | 86 | 1011.1 |
| 20260506084003 | 57 | 226 | 1.0 | 4.0 | 0.00 | 0.00 | 0.00 | 86 | 1011.0 |
| 20260506083504 | 57 | 243 | 1.0 | 4.0 | 0.00 | 0.00 | 0.00 | 86 | 1011.0 |
| 20260506083013 | 58 | 245 | 1.0 | 7.0 | 0.00 | 0.00 | 0.00 | 85 | 1011.1 |
| 20260506082503 | 58 | 34 | 2.0 | 8.0 | 0.00 | 0.00 | 0.00 | 85 | 1011.2 |
| 20260506082003 | 58 | 231 | 1.0 | 8.0 | 0.00 | 0.00 | 0.00 | 85 | 1011.2 |
| 20260506081507 | 58 | 264 | 1.0 | 7.0 | 0.00 | 0.00 | 0.00 | 85 | 1011.2 |
| 20260506081003 | 58 | 252 | 2.0 | 8.0 | 0.00 | 0.00 | 0.00 | 85 | 1011.2 |
| 20260506080503 | 58 | 268 | 1.0 | 9.0 | 0.00 | 0.00 | 0.00 | 85 | 1011.3 |
| 20260506073503 | 58 | 249 | 1.0 | 8.0 | 0.00 | 0.00 | 0.00 | 84 | 1011.2 |
| 20260506073004 | 58 | 284 | 2.0 | 8.0 | 0.00 | 0.00 | 0.00 | 84 | 1011.2 |
| 20260506072508 | 58 | 23 | 2.0 | 8.0 | 0.00 | 0.00 | 0.00 | 84 | 1011.1 |
| 20260506072008 | 58 | 269 | 3.0 | 10.0 | 0.00 | 0.00 | 0.00 | 84 | 1011.2 |
| 20260506071517 | 58 | 189 | 4.0 | 10.0 | 0.00 | 0.00 | 0.00 | 83 | 1011.2 |
| 20260506071004 | 58 | 190 | 5.0 | 14.0 | 0.00 | 0.00 | 0.00 | 83 | 1011.1 |
| 20260506070503 | 58 | 292 | 4.0 | 14.0 | 0.00 | 0.00 | 0.00 | 83 | 1011.1 |
| 20260506062509 | 59 | 263 | 3.0 | 12.0 | 0.00 | 0.00 | 0.00 | 82 | 1011.0 |
| 20260506062002 | 59 | 254 | 4.0 | 12.0 | 0.00 | 0.00 | 0.00 | 82 | 1011.2 |
| 20260506061507 | 59 | 253 | 4.0 | 8.0 | 0.00 | 0.00 | 0.00 | 81 | 1011.1 |
| 20260506061008 | 59 | 245 | 3.0 | 10.0 | 0.00 | 0.00 | 0.00 | 81 | 1011.1 |
| 20260506060507 | 59 | 198 | 3.0 | 10.0 | 0.00 | 0.00 | 0.00 | 81 | 1011.2 |
| 20260506051009 | 60 | 224 | 6.0 | 10.0 | 0.00 | 0.00 | 0.00 | 79 | 1011.7 |
| 20260506050504 | 60 | 271 | 5.0 | 12.0 | 0.00 | 0.00 | 0.00 | 78 | 1011.7 |
| 20260506045005 | 60 | 207 | 4.0 | 9.0 | 0.00 | 0.00 | 0.00 | 78 | 1011.7 |
| 20260506044511 | 60 | 269 | 5.0 | 10.0 | 0.00 | 0.00 | 0.00 | 77 | 1011.8 |
| 20260506044011 | 60 | 360 | 5.0 | 10.0 | 0.00 | 0.00 | 0.00 | 77 | 1011.7 |
| 20260506043509 | 60 | 252 | 4.0 | 11.0 | 0.00 | 0.00 | 0.00 | 77 | 1011.8 |
| 20260506043006 | 61 | 255 | 5.0 | 11.0 | 0.00 | 0.00 | 0.00 | 77 | 1011.8 |
| 20260506042504 | 60 | 278 | 5.0 | 11.0 | 0.00 | 0.00 | 0.00 | 77 | 1011.8 |
| 20260506042007 | 61 | 360 | 3.0 | 14.0 | 0.00 | 0.00 | 0.00 | 77 | 1011.8 |
| 20260506041517 | 61 | 360 | 3.0 | 14.0 | 0.00 | 0.00 | 0.00 | 76 | 1011.8 |
| 20260506041004 | 61 | 360 | 2.0 | 10.0 | 0.00 | 0.00 | 0.00 | 76 | 1011.8 |
| 20260506040508 | 61 | 360 | 4.0 | 10.0 | 0.00 | 0.00 | 0.00 | 76 | 1011.9 |
| 20260506040016 | 61 | 360 | 4.0 | 10.0 | 0.00 | 0.00 | 0.00 | 75 | 1011.8 |
| 20260506035504 | 61 | 360 | 5.0 | 10.0 | 0.00 | 0.00 | 0.00 | 75 | 1011.8 |
| 20260506035008 | 61 | 360 | 4.0 | 10.0 | 0.00 | 0.00 | 0.00 | 75 | 1011.8 |
| 20260506034519 | 61 | 269 | 2.0 | 20.0 | 0.00 | 0.00 | 0.00 | 74 | 1011.7 |
| 20260506034008 | 61 | 277 | 6.0 | 20.0 | 0.00 | 0.00 | 0.00 | 74 | 1011.7 |
| 20260506033506 | 61 | 257 | 3.0 | 9.0 | 0.00 | 0.00 | 0.00 | 74 | 1011.7 |
| 20260506033016 | 61 | 280 | 3.0 | 12.0 | 0.00 | 0.00 | 0.00 | 73 | 1011.7 |
| 20260506032513 | 61 | 236 | 5.0 | 12.0 | 0.00 | 0.00 | 0.00 | 73 | 1011.7 |
| 20260506032004 | 61 | 269 | 3.0 | 9.0 | 0.00 | 0.00 | 0.00 | 72 | 1011.7 |
| 20260506031512 | 61 | 284 | 2.0 | 11.0 | 0.00 | 0.00 | 0.00 | 72 | 1011.8 |
| 20260506031004 | 61 | 274 | 3.0 | 11.0 | 0.00 | 0.00 | 0.00 | 72 | 1011.8 |
| 20260506030508 | 61 | 288 | 2.0 | 9.0 | 0.00 | 0.00 | 0.00 | 72 | 1011.7 |
| 20260506030012 | 61 | 275 | 3.0 | 9.0 | 0.00 | 0.00 | 0.00 | 71 | 1011.7 |
| 20260506025507 | 61 | 267 | 5.0 | 9.0 | 0.00 | 0.00 | 0.00 | 72 | 1011.7 |
| 20260506025009 | 61 | 275 | 2.0 | 12.0 | 0.00 | 0.00 | 0.00 | 71 | 1011.7 |
| 20260506024509 | 61 | 245 | 5.0 | 12.0 | 0.00 | 0.00 | 0.00 | 71 | 1011.8 |
| 20260506024004 | 61 | 227 | 3.0 | 11.0 | 0.00 | 0.00 | 0.00 | 71 | 1011.8 |
| 20260506023506 | 61 | 289 | 3.0 | 11.0 | 0.00 | 0.00 | 0.00 | 71 | 1011.8 |
| 20260506023024 | 61 | 324 | 4.0 | 11.0 | 0.00 | 0.00 | 0.00 | 71 | 1011.7 |
| 20260506022503 | 61 | 293 | 3.0 | 11.0 | 0.00 | 0.00 | 0.00 | 71 | 1011.9 |
| 20260506022008 | 61 | 271 | 3.0 | 8.0 | 0.00 | 0.00 | 0.00 | 71 | 1011.7 |
| 20260506021524 | 61 | 205 | 1.0 | 11.0 | 0.00 | 0.00 | 0.00 | 71 | 1011.7 |
| 20260506021010 | 61 | 227 | 2.0 | 11.0 | 0.00 | 0.00 | 0.00 | 71 | 1011.7 |
| 20260506020505 | 61 | 198 | 3.0 | 10.0 | 0.00 | 0.00 | 0.00 | 71 | 1011.7 |
| 20260506020011 | 62 | 312 | 2.0 | 10.0 | 0.00 | 0.00 | 0.00 | 70 | 1011.7 |
| 20260506015507 | 62 | 59 | 1.0 | 11.0 | 0.00 | 0.00 | 0.00 | 70 | 1011.6 |
| 20260506015004 | 62 | 271 | 5.0 | 11.0 | 0.00 | 0.00 | 0.00 | 71 | 1011.6 |
| 20260506014509 | 61 | 300 | 3.0 | 8.0 | 0.00 | 0.00 | 0.00 | 71 | 1011.7 |